Printer-friendly version

IAU Minor Planet Center

Minor Planet Center

MPEC 2004-H84 : 2003 TS9

The following Minor Planet Electronic Circular may be linked-to from your own Web pages, but must not otherwise be redistributed electronically.


Read MPEC 2004-H83 Read MPEC 2004-H85


M.P.E.C. 2004-H84                                Issued 2004 Apr. 28, 13:44 UT

     The Minor Planet Electronic Circulars contain information on unusual
         minor planets and routine data on comets.  They are published
   on behalf of Commission 20 of the International Astronomical Union by the
          Minor Planet Center, Smithsonian Astrophysical Observatory,
                          Cambridge, MA 02138, U.S.A.

         Supported in part by the Steven and Michele Kirsch Foundation
             Prepared using the Tamkin Foundation Computer Network

                              MPC@CFA.HARVARD.EDU
          URL http://cfa-www.harvard.edu/iau/mpc.html  ISSN 1523-6714

                                   2003 TS9

                           Revision to MPEC 2003-T78

Additional Observations:
     K03T09S 9 1979 12 15.53430 05 10 59.87 -51 45 55.7                 EH084260
     K03T09S 9 1979 12 15.58292 05 10 49.68 -51 47 04.8                 EH084260
     K03T09S 9 1979 12 21.52208 04 50 55.70 -53 38 01.0                 EH084260
     K03T09S 9 1979 12 21.56374 04 50 47.43 -53 38 37.3                 EH084260

Observer details:
260 Siding Spring-DSS.  Observer A. Savage.  Measurers M. Read, R. Haver,
    A. Pelloni, G. Forti.  1.2-m Schmidt.

First and last observations above in comparison with prediction:
Residuals in seconds of arc (or two decimals in degrees), reference and Delta-T
791215 260 0.05+ 0.05-    791221 260 0.04+ 0.05-    MPO 57982   +0.00055 day

Orbital elements:
2003 TS9
Epoch 2004 July 14.0 TT = JDT 2453200.5                 MPC
M 102.91944              (2000.0)            P               Q
n   0.36787820     Peri.  155.38753     +0.57982858     -0.07725723
a   1.9290050      Node   240.33206     +0.50228757     +0.81770234
e   0.2713463      Incl.   68.97632     +0.64148734     -0.57043335
P   2.68           H   16.1           G   0.15           U   2
Residuals in seconds of arc
791215 260  0.2+  1.3+    031104 704  0.9+  0.1+    031129 704  0.0   0.3+
791215 260  1.1+  0.2+    031104 704  1.1+  0.6+    031129 704  0.4+  0.4+
791221 260  0.3+  0.2+    031104 704  1.6+  0.8+    031129 704  0.4-  0.3+
791221 260  0.1+  0.1-    031104 704  0.7+  0.0     031129 704  0.3+  0.0
031014 704  0.7-  1.6+    031105 A50  1.2-  1.1-    031129 704  0.1+  0.2+
031014 704  0.2-  1.0+    031105 A50  0.4-  0.7-    031130 H72  0.1+  0.1+
031014 704  0.5-  0.1-    031105 A50  0.5-  0.8-    031130 H72  0.1-  0.4+
031015 649  0.1-  0.4-    031105 A50  0.4-  0.7-    031130 H72  0.4+  0.7+
031015 649  0.4-  0.6-    031105 A50  0.1-  0.4-    031130 H72  1.0+  0.6+
031015 649  0.0   0.2-    031105 A50  0.2+  0.2-    031130 H72  0.4-  0.3+
031015 G90  0.3+  0.0     031105 A50  0.1+  0.5+    031130 H72  0.2-  0.5+
031015 G90  0.1+  0.1-    031106 355  0.1-  0.2+    031216 704  0.5-  0.5-
031015 G90  0.2+  0.1-    031106 355  0.2-  0.4-    031216 704  0.2-  0.0
031015 854  0.3-  0.6+    031106 355  0.2+  0.0     031216 704  0.4-  0.0
031015 854  0.1-  0.1-    031115 413  0.6+  0.7-    031216 704  0.2-  0.1-
031015 926  0.2+  0.2-    031115 413  0.1+  0.5-    031216 704  0.3-  0.0
031015 854  0.1+  0.2+    031115 413  0.3+  0.3-    031216 E14  0.2-  0.0
031015 926  0.4+  0.0     031116 355  0.5+  0.4+    031216 E14  0.4+  0.5+
031015 673  0.3+  0.1+    031116 355  0.1+  0.0     031216 E14  0.3-  0.5+
031015 673  0.2+  0.1-    031116 355  0.1+  0.1+    031217 704  0.1-  0.3+
031015 673  0.1+  0.2-    031116 355  0.3-  0.1+    031217 704  0.2-  0.1-
031015 673  0.4+  0.1+    031122 620  0.1+  0.0     031217 704  0.2-  0.1-
031015 H36  0.4-  1.3-    031122 620  0.2+  0.3-    031217 704  0.2-  0.4-
031015 H36  0.3+  0.5+    031122 620  0.1-  0.3-    031217 704  0.5-  0.3-
031015 H36  1.1+  0.7+    031123 699  0.0   0.0     031219 H72  1.2-  0.1+
031017 704  1.2-  0.0     031123 699  0.4-  0.7-    031219 H72  1.4+  1.4-
031017 704  0.5+  1.0+    031123 699  0.1-  0.2+    031219 H72  1.3+  1.6-
031017 704  0.4-  0.3-    031123 699  0.2-  0.1+    031230 413  0.2-  0.1+
031017 704  1.2-  0.1-    031127 H72  0.2+  0.3-    031230 413  0.1-  0.1+
031017 704  0.2-  1.4+    031127 H72  0.3-  0.3+    031230 413  0.0   0.1+
031103 461  0.0   0.3-    031127 H72  0.3-  0.4+    040101 E14  0.9-  0.0
031103 461  0.0   0.1-    031127 H72  0.3-  0.1+    040101 E14  0.0   0.3-
031103 461  0.1-  0.3-    031127 H72  0.3-  0.1-    040101 E14  0.3-  0.4-
031103 461  0.0   0.3-    031127 H72  0.4-  0.1-    040331 413  0.2-  0.3-
031103 461  0.0   0.3-    031127 H72  0.2+  0.0     040331 413  0.2-  0.3-
031104 704  0.8+  0.1+    031127 H72  0.4-  0.2+

Ephemeris:
2003 TS9                 a,e,i = 1.93, 0.27, 69                  q = 1.4056
Date    TT    R. A. (2000) Decl.     Delta      r     Elong.  Phase     V
2004 04 25    05 10.49   -31 47.9    2.171    1.920    62.2    27.6    20.4
2004 05 05    05 33.44   -31 58.9    2.208    1.954    62.2    27.2    20.5
2004 05 15    05 57.69   -32 17.1    2.241    1.986    62.4    26.8    20.5
2004 05 25    06 23.17   -32 42.3    2.273    2.018    62.6    26.5    20.6
2004 06 04    06 49.74   -33 14.2    2.307    2.050    62.7    26.1    20.7
2004 06 14    07 17.24   -33 51.3    2.344    2.080    62.5    25.7    20.7
2004 06 24    07 45.49   -34 32.8    2.385    2.109    62.1    25.2    20.8
2004 07 04    08 14.24   -35 17.4    2.432    2.138    61.2    24.6    20.8
2004 07 14    08 43.26   -36 03.6    2.486    2.165    60.0    24.0    20.9

Timothy B. Spahr             (C) Copyright 2004 MPC           M.P.E.C. 2004-H84

Read MPEC 2004-H83 Read MPEC 2004-H85


Our Web policy. Index to the CBAT/MPC/ICQ pages.


Valid HTML 4.01!